Regional Weather Roundup
Issued by NWS Albany, NY

Current Version | Previous Version | Text Only | Print | Product List | Glossary On
Versions: 1 2 3 4 5 6 7 8 9 10 11 12 13 14 15 16 17 18 19 20 21 22 23 24 25 26 27 28
000
ASUS41 KALY 110510
RWRALY

NEW YORK STATE HOURLY WEATHER ROUNDUP
NATIONAL WEATHER SERVICE ALBANY NY
100 AM EDT TUE MAY 11 2021

NOTE: "FAIR" INDICATES FEW OR NO CLOUDS BELOW 12,000 FEET WITH NO
SIGNIFICANT WEATHER AND/OR NO OBSTRUCTIONS TO VISIBILITY.

NYZ032-033-038>043-046>054-057>066-NYZ062>081-082-084-110600-
EAST


CITY           SKY/WX    TMP DP  RH WIND       PRES   REMARKS
ALBANY         MOCLDY    45  35  68 W6        29.99S
GLENS FALLS    CLEAR     45  33  63 CALM      29.96S
POUGHKEEPSIE   PTCLDY    44  41  89 CALM      29.99R
NEWBURGH       PTCLDY    45  45 100 W6        30.01R
MONTGOMERY     LGT RAIN  40  40 100 SW6       30.00R
WHITE PLAINS   PTCLDY    44  40  85 NW5       29.98F
ISLIP          PTCLDY    48  43  82 W5        29.98S
NEW YORK CITY  MOCLDY    55  41  59 NW9       30.00S
CENTRAL PARK   PTCLDY    52  41  66 NW5       30.03S
$$

NYZ005>009-017-018-044>046-055-056-110600-
CENTRAL


CITY           SKY/WX    TMP DP  RH WIND       PRES   REMARKS
FULTON         CLEAR     41  34  76 W5        30.01S
SYRACUSE       PTCLDY    45  35  68 W9        30.02S
ROME           PTCLDY    42  33  70 NW6       30.01S
ELMIRA         CLOUDY    41  39  93 CALM      30.04S
BINGHAMTON     MOCLDY    42  31  64 NW6       30.01S
MONTICELLO     PTCLDY    40  37  89 W6        30.02R
$$

NYZ026>034-041>043-087-110600-
NORTH


CITY           SKY/WX    TMP DP  RH WIND       PRES   REMARKS
WATERTOWN      CLOUDY    47  38  71 W13G20    29.97S
FORT DRUM      NOT AVBL
OGDENSBURG     FAIR      45  41  87 VRB3      29.92S
MASSENA        LGT RAIN  47  38  71 W6        29.93S
SARANAC LAKE   MOCLDY    40  31  70 SW6       29.90F
PLATTSBURGH    CLOUDY    51  29  42 SW5       29.92R
$$

NYZ001>004-010>016-019>021-085-110600-
WEST


CITY           SKY/WX    TMP DP  RH WIND       PRES   REMARKS
NIAGARA FALLS  CLEAR     41  29  62 W9        30.06R
BUFFALO        PTCLDY    44  32  62 W7        30.06R
DUNKIRK        CLOUDY    47  39  74 MISG      30.09R
JAMESTOWN      CLOUDY    41  36  82 VRB6      30.07R
WELLSVILLE     MOCLDY    36  30  79 W6        30.05S WCI  31
ROCHESTER      PTCLDY    40  36  86 W8        30.04S WCI  34
PENN YAN       MOCLDY    43  33  68 W3        30.04S
$$

             KEY
       WCI = WIND CHILL INDEX
       VSB = VISIBILITY
       HX  = HEAT INDEX
$$



USA.gov is the U.S. government's official web portal to all federal, state and local government web resources and services.